Tracking 35237 objects as of 5-Sep-2026
HD Live streaming from Space Station
objects crossing your sky now

CRRES DEB (CANISTER)

Track CRRES DEB (CANISTER) now!


NORAD ID: 21594
Int'l Code: 1990-065K
Launch date: July 25, 1990
Source: United States (US)
Launch site: AIR FORCE EASTERN TEST RANGE (AFETR)

Note: This is SATELLITE DEBRIS
Your satellite tracking list
Your tracking list is empty




NASA's NSSDC Master Catalog

Two Line Element Set (TLE):
1 21594U 90065K   26248.52282148  .00000219  00000-0  77265-3 0  9997
2 21594  17.3160  27.0754 7052781 202.8910  96.4522  2.44876506309594
Source of the keplerian elements: AFSPC